Location: Br�znic
(45.9167°N, 22.6500°E)
Time: 19:25:59
(UTC+00:00)

SeaSat 1 - Pass Details

Date: 03 March 2021
Orbit: 744 x 747 km, 108.0° (Epoch: 12 April)

Event Time Altitude Azimuth Distance (km) Brightness Sun altitude
Rises 17:54:40 0° 26° (NNE) 3,201 5.5 -17.4°
Reaches altitude 10° 17:56:57 10° 25° (NNE) 2,274 4.8 -17.8°
Maximum altitude 18:01:53 76° 301° (WNW) 776 2.6 -18.7°
Drops below altitude 10° 18:06:47 10° 216° (SW) 2,260 5.2 -19.5°
Sets 18:09:03 0° 215° (SW) 3,180 6.0 -19.9°
